[Iaude] MPEC J64: 2022 SC11 [a=1.70,e=0.28,i=13.5,H=21.16]
    mpec at cfa.harvard.edu 
    mpec at cfa.harvard.edu
       
    Sat May  4 10:14:20 EDT 2024
    
    
  
M.P.E.C. 2024-J64                                   Issued 2024 May 4, 14:12 UT
     The Minor Planet Electronic Circulars contain information on unusual
         minor planets, routine data on comets and natural satellites,
         and occasional editorial announcements.  They are published
    on behalf of Division F of the International Astronomical Union by the
          Minor Planet Center, Smithsonian Astrophysical Observatory,
                          Cambridge, MA 02138, U.S.A.
			  
             Prepared using the Tamkin Foundation Computer Network
                              MPC at CFA.HARVARD.EDU
            URL https://www.minorplanetcenter.net/    ISSN 1523-6714
                                   2022 SC11                                    
                           Revision to MPEC 2022-S262                           
Additional Observations:
     K22S11C  C2013 06 13.35878316 16 57.222+08 38 56.84         21.65GVEJ064F51
     K22S11C  C2013 06 16.27484216 13 37.214+09 08 58.78         21.48GVEJ064F51
     K22S11C  C2013 06 17.27999916 12 30.898+09 18 08.34         22.20GVEJ064F51
     K22S11C  C2013 06 17.37275316 12 24.394+09 18 57.68         21.86GVEJ064F51
     K22S11C  C2013 06 17.38450016 12 23.572+09 19 04.08         22.56GVEJ064F51
     K22S11C  C2013 06 17.42836916 12 20.490+09 19 26.57         22.31GVEJ064F51
     K22S11C KC2024 05 02.39146514 39 52.300-03 23 14.40               VEJ064V06
     K22S11C KC2024 05 02.39942114 39 51.680-03 23 05.80         22.66GVEJ064V06
     K22S11C KC2024 05 02.40737914 39 51.060-03 22 57.40         22.52GVEJ064V06
     K22S11C KC2024 05 02.41533514 39 50.440-03 22 49.30               VEJ064V06
Observer details:
F51 Pan-STARRS 1, Haleakala.  Observers J. Herman, T. Lowe, P. Minguez, A.
    Schultz, I. Smith.  Measurers K. Chambers, T. de Boer, J. Fairlamb, H.
    Gao, M. Huber, C.-C. Lin, E. Magnier, Y. Ramanjooloo, R. Wainscoat, R.
    Weryk.  1.8-m Ritchey-Chretien + CCD.
V06 Catalina Sky Survey-Kuiper.  Observers V. F. Carvajal, G. J. Leonard.
    Measurers T. Beuden, V. F. Carvajal, D. Fay, J. B. Fazekas, D. C. Fuls, A.
    R. Gibbs, A. D. Grauer, H. Groeller, J. K. Hogan, R. A. Kowalski, S. M.
    Larson, G. J. Leonard, D. Rankin, R. L. Seaman, F. C. Shelly, K. W.
    Wierzchos.  1.55-m reflector + 1K CCD.
First and last observations above in comparison with prediction:
Residuals in seconds of arc (or two decimals in degrees), reference and Delta-T
130613 F51 0.11+ 0.02+    240502 V06 0.02+ 0.00+    E2024-DC9   +0.00 days
Orbital elements:
2022 SC11                                                Earth MOID = 0.2511 AU
Epoch 2024 Mar. 31.0 TT = JDT 2460400.5                 Veres                   
M 251.23772              (2000.0)            P               Q                  
n   0.44357996     Peri.  147.30136     +0.96121192     +0.26653534             
a   1.7027652      Node   197.66060     -0.27520027     +0.94393200             
e   0.2765353      Incl.   13.52026     +0.01834290     +0.19481091             
P   2.22           H   21.16          G   0.15           U   0                  
Residuals in seconds of arc
130613 F51  0.1-  0.0     220925 511  0.2+  0.2+    220928 D29  0.4+  0.4-
130616 F51  0.3-  0.1+    220925 511  0.1-  0.2-    220930 807  0.3+  0.4-
130617 F51  0.2-  0.0     220925 511  0.6-  0.1-    220930 807  0.4+  0.2-
130617 F51  0.1+  0.2+    220925 511  0.1-  0.7+    220930 807  0.3+  0.1-
130617 F51  0.2+  0.4+    220925 511  0.2+  0.1+    221004 I52  0.0   0.2+
130617 F51  0.3+  0.0     220925 511  0.1+  0.1+    221004 I52  0.1+  0.9-
220629 G96  0.8-  0.0     220925 511  0.5-  0.4+    221004 I52  0.2-  0.2-
220629 G96  0.1-  0.4-    220925 511  0.2-  0.3+    221014 807  0.5-  0.1+
220629 G96  0.1-  0.5-    220925 511  0.0   0.1+    221014 807  0.2-  0.2-
220925 G96  0.0   0.0     220925 511  0.1-  0.1-    221014 807  0.2-  0.2+
220925 G96  0.2+  0.1-    220925 511  0.3-  0.1+    221014 I52  0.2+  0.3+
220925 G96  0.1-  0.0     220925 511  0.1+  0.1-    221014 I52  0.5-  0.7+
220925 G96  0.1+  0.0     220926 H21  0.2-  0.1+    221014 I52 (0.8-  0.7+)
220925 U52  0.0   0.3-    220926 H21  0.2-  0.1+    221014 I52  0.7-  0.0
220925 U52  0.2+  0.5-    220926 H21  0.3-  0.0     221018 F51 (0.2-  0.5+)
220925 I52  0.4+  0.4+    220926 858  0.0   0.2+    221018 F51  0.1-  0.0
220925 I52  0.2+  0.1-    220926 858  0.2-  0.1+    221018 F51  0.1-  0.0
220925 I52  0.3-  0.2-    220926 858  0.0   0.0     221027 807  0.0   0.6-
220925 I52  0.2-  0.0     220926 F51  0.0   0.1+    221027 807  0.2+  0.4-
220925 I93  0.4+  0.5-    220926 F51  0.0   0.1+    221027 807  0.7-  0.1-
220925 I93  0.4-  0.4+    220926 F51  0.0   0.1+    221030 G96  0.0   0.2+
220925 I93  0.2+  0.1+    220926 G37  0.1+  0.1-    221030 G96  0.0   0.0
220925 958  0.6+  0.5-    220926 G37  0.1+  0.0     221030 G96  0.0   0.3+
220925 958  0.2-  0.2-    220926 G37  0.1+  0.0     221030 G96  0.0   0.1-
220925 958  0.8+  0.1-    220926 G37  0.4+  0.0     221114 F51  0.1-  0.0
220925 204  0.0   0.4+    220926 G37  0.2+  0.0     221114 F51  0.1+  0.1+
220925 204  0.0   0.1+    220926 L01  0.1-  0.0     221114 F51  0.1+  0.1-
220925 204  0.0   0.0     220926 L01  0.0   0.1-    221115 807  0.0   0.1-
220925 511  0.0   0.0     220926 L01  0.0   0.1-    221115 807  0.2-  0.2-
220925 511  0.4-  0.8+    220926 L01  0.4-  0.4+    221115 807  0.4+  0.1-
220925 511  0.1+  0.1-    220926 L01  0.2-  0.2+    240502 V06  0.0   0.1-
220925 511  0.1-  0.0     220927 H21  0.0   0.5+    240502 V06  0.0   0.1+
220925 511  0.1-  0.1-    220927 H21  0.1+  0.2+    240502 V06  0.0   0.0
220925 511  0.4-  0.1+    220927 H21  0.3+  0.4+    240502 V06  0.0   0.3-
220925 511  0.2-  0.1-    220928 D29  0.2+  0.2-
220925 511  0.2-  0.0     220928 D29  0.1-  0.1+
Ephemeris:
2022 SC11                a,e,i = 1.70, 0.28, 14                  q = 1.2319
Date    TT    R. A. (2000) Decl.     Delta      r    Elong.  Phase     V
2024 04 04    15 06 26.7 -11 13 14   1.0283  1.9426   146.5    16.5    23.5
...
2024 04 19    14 55 15.6 -07 20 08   0.9164  1.8997   163.0     8.9    23.0
...
2024 04 27    14 46 28.0 -04 59 14   0.8781  1.8755   168.8     6.0    22.7
...
2024 05 03    14 39 06.9 -03 12 25   0.8597  1.8568   167.5     6.7    22.7
2024 05 04    14 37 51.5 -02 54 53   0.8575  1.8537   166.9     7.1    22.7
2024 05 05    14 36 35.8 -02 37 28   0.8556  1.8505   166.1     7.5    22.7
...
2024 05 11    14 29 04.2 -00 56 53   0.8490  1.8311   160.1    10.8    22.8
...
2024 05 19    14 19 42.5 +01 01 34   0.8530  1.8047   150.7    15.9    23.0
...
2024 06 03    14 06 53.3 +03 35 54   0.8922  1.7530   133.6    24.8    23.3
A. U. Tomatic                (C) Copyright 2024 MPC           M.P.E.C. 2024-J64
    
    
More information about the Iaude
mailing list